Tracking 22438 objects as of 24-Feb-2021
HD Live streaming from Space Station
objects crossing your sky now

CZ-4 DEB

Track CZ-4 DEB now!
10-day predictions


NORAD ID: 37612
Int'l Code: 1990-081CY
Perigee: 736.1 km
Apogee: 786.3 km
Inclination: 98.5 °
Period: 99.9 minutes
Semi major axis: 7132 km
RCS: 0.0126 m2 (small)
Launch date: September 3, 1990
Source: People's Republic of China (PRC)
Launch site: Taiyaun Space Center, China (TSC)

Note: This is SATELLITE DEBRIS
aabbcc
Your satellite tracking list
Your tracking list is empty




NASA's NSSDC Master Catalog

Two Line Element Set (TLE):
1 37612U 90081CY  21055.35348645  .00000511  00000-0  17026-3 0  9994
2 37612  98.4601  94.8958 0035238 286.3285 129.0858 14.41344541937594
Source of the keplerian elements: AFSPC